Preview of NWS' New Version of Forecast
This preview is not operational and should not be used for support decisions.

Regional Weather Roundup (RWR)

Issued by National Weather Service (NWS)

                            
000
ASUS43 KLMK 200710
RWRKY 
KENTUCKY REGIONAL WEATHER ROUNDUP
NATIONAL WEATHER SERVICE LOUISVILLE KY
300 AM EDT MON MAY 20 2019

NOTE "FAIR" INDICATES FEW OR NO CLOUDS BELOW 12,000 FEET
WITH NO SIGNIFICANT WEATHER AND/OR OBSTRUCTIONS TO VISIBILITY.

KYZ001>023-026-027-061>063-070>075-200800-
WESTERN AND SOUTH CENTRAL KENTUCKY
  
CITY           SKY/WX    TMP DP  RH WIND       PRES   REMARKS
PADUCAH        FAIR      59  56  89 W5        29.96R                  
HENDERSON      FAIR      65  57  75 NW9       29.96R                  
OWENSBORO      FAIR      65  60  84 W6        29.94S                  
HOPKINSVILLE   FAIR      68  68 100 CALM      29.95R                  
BOWLING GREEN  CLOUDY    71  66  84 W5        29.95R                  
GLASGOW        MOCLDY    68  64  89 W3        29.96R                  
$$

KYZ024-025-028>034-038-045-046-053-200800-
NORTH CENTRAL KENTUCKY
  
CITY           SKY/WX    TMP DP  RH WIND       PRES   REMARKS
LOUISVILLE/SDF FAIR      65  62  90 S5        29.92S                  
LOUISVILLE/LOU FAIR      64  61  90 S5        29.93R                  
FORT KNOX      FAIR      62  62 100 CALM      29.94S FOG              
$$

KYZ035>037-039>044-047>052-055>060-089>105-200800-
NORTHEAST KENTUCKY
  
CITY           SKY/WX    TMP DP  RH WIND       PRES   REMARKS
LEXINGTON      LGT RAIN  63  58  83 W7        29.96R                  
COVINGTON      MOCLDY    62  60  93 SW7       29.89S                  
FRANKFORT      LGT RAIN  62  60  93 SW7       29.93S                  
$$

KYZ054-064>069-076>088-106>120-200800-
SOUTHEAST KENTUCKY
  
CITY           SKY/WX    TMP DP  RH WIND       PRES   REMARKS
JACKSON        MOCLDY    70  59  68 MISG      29.96S                  
LONDON         CLOUDY    69  62  78 SW3       29.97S                  
SOMERSET       FAIR      64  61  88 CALM      29.97S                  
MIDDLESBORO    CLOUDY    71  60  69 W3        29.99R                  
MONTICELLO     FAIR      68  62  81 W15         N/A                   
$$